Vorticity
5 4 3 3 3 2 2 2 2 2 2 2 2 2 2 3 3 3 3 4 4 4 5 5 5 5 6 6 6 6 6 6 6 7 7 8 8 9 9 9 9 8 8 7 7 6 6 5 5 4 3 2 1 1 -0 -2 -2 -1 -1 -1 -0 0 1 2 3 3 4 5 5
5 5 4 3 3 3 2 2 2 2 2 2 2 2 2 3 3 4 4 4 4 5 5 5 6 6 6 6 6 6 6 6 7 7 7 8 8 8 8 8 8 7 7 6 6 6 5 5 4 4 3 2 1 1 0 -1 -1 -1 -0 0 1 1 2 3 4 4 4 5 5
5 5 4 4 3 3 3 3 2 2 2 2 2 3 3 4 4 4 4 5 5 5 6 6 6 6 6 6 6 6 6 6 7 7 7 7 7 7 7 7 7 6 6 6 5 5 4 4 3 3 2 2 1 1 1 1 1 1 2 2 2 3 3 4 4 4 5 5 5
5 5 5 4 4 4 3 3 3 3 3 3 3 4 4 4 5 5 5 5 6 6 6 6 6 6 6 6 6 6 6 6 6 7 7 7 7 7 6 6 6 6 5 5 5 4 4 4 3 3 2 2 2 2 3 3 3 3 3 3 4 4 4 4 4 5 5 5 5
6 5 5 5 4 4 4 3 3 4 4 4 4 5 5 5 6 6 6 6 6 6 6 6 6 6 6 6 6 6 6 6 6 6 6 6 6 6 6 6 6 5 5 5 5 4 4 4 4 3 3 3 3 4 4 4 4 4 4 4 4 5 5 5 5 5 5 5 5
6 5 5 5 5 4 4 4 4 4 4 5 5 6 6 6 6 6 6 6 6 7 7 7 6 6 6 6 6 6 6 6 6 6 6 6 6 6 6 6 6 6 6 6 5 5 5 5 5 5 5 4 5 5 5 5 5 5 5 5 5 5 5 5 5 5 5 5 5
6 5 5 5 5 5 5 5 5 5 5 6 6 6 6 6 6 6 6 6 7 7 6 6 6 6 6 6 5 5 5 5 5 5 5 6 6 6 6 6 6 6 6 6 6 6 6 5 5 6 6 5 5 5 5 5 5 5 5 5 5 5 5 5 5 5 5 5 5
5 5 5 5 5 5 5 5 6 6 6 6 6 6 6 6 6 6 7 7 7 6 6 6 6 6 5 5 5 5 5 5 5 5 5 6 6 6 7 7 7 7 7 7 7 6 6 6 6 6 6 5 5 5 5 4 5 5 5 5 5 5 5 5 5 5 5 5 5
5 5 5 5 5 5 6 6 6 6 6 6 6 6 6 6 6 7 7 6 6 6 6 6 5 5 5 5 4 4 4 5 5 5 6 6 6 7 7 7 7 7 7 7 6 6 6 6 6 5 5 5 5 5 5 4 5 5 5 5 5 5 5 5 5 5 5 5 5
5 5 5 5 6 6 6 6 6 6 6 6 7 7 6 6 6 6 6 6 6 6 6 5 5 5 4 4 4 4 4 4 5 5 6 6 6 7 7 7 7 7 7 7 6 6 6 6 6 5 5 5 5 5 5 5 5 6 6 6 5 6 6 6 6 6 5 5 4
5 5 5 6 6 6 6 7 7 7 7 7 7 6 6 6 6 6 6 6 6 6 5 5 5 4 4 4 4 4 4 5 5 5 5 6 6 6 6 6 6 6 7 7 6 6 6 6 6 5 5 5 5 5 6 6 6 6 6 6 6 6 6 6 5 5 4 3 3
5 5 6 6 6 6 7 7 7 7 7 7 6 6 6 6 6 6 6 6 6 5 5 5 4 4 4 4 4 4 4 4 4 5 5 5 5 5 6 6 6 6 6 7 6 6 6 6 6 6 6 6 6 6 6 6 6 6 6 6 6 6 5 5 4 3 3 2 2
5 6 6 6 7 7 7 7 7 7 7 6 6 6 6 6 6 6 6 6 6 5 5 5 4 4 4 4 4 4 4 4 4 4 4 4 4 5 5 6 6 7 7 7 6 6 6 6 6 6 6 6 6 6 6 6 6 6 6 6 6 5 4 3 3 2 2 2 4
6 6 6 7 7 7 7 7 7 7 6 6 6 6 6 6 6 6 6 6 6 5 5 5 4 4 4 4 4 4 4 3 3 3 3 3 4 5 6 6 7 7 7 7 6 6 6 6 6 6 7 7 7 7 7 6 6 6 6 6 5 4 3 2 2 2 3 5 7
6 6 7 7 7 7 7 7 7 7 6 6 6 6 6 6 6 6 6 6 6 5 5 5 4 4 4 4 4 3 3 3 3 3 3 4 4 5 6 7 7 7 7 6 6 6 6 7 7 7 7 7 7 7 7 7 6 6 5 4 3 3 2 2 3 5 7 9 12
6 7 7 7 7 7 7 7 7 6 6 6 6 6 6 6 6 6 6 6 6 5 5 4 4 4 4 3 3 3 3 3 3 3 4 4 5 6 6 7 7 7 7 6 7 7 7 7 7 7 7 7 7 7 7 6 6 5 4 3 2 2 3 4 6 8 11 13 16
7 7 7 7 7 7 7 7 6 6 6 6 6 6 6 6 6 6 6 6 6 5 5 5 4 4 4 4 3 3 3 3 3 4 4 5 6 6 7 7 7 7 6 7 7 7 7 8 8 7 7 7 7 7 6 5 4 3 2 2 2 4 5 7 10 13 15 18 21
7 7 7 7 7 7 6 6 6 6 6 6 6 6 6 6 6 6 6 6 6 5 5 5 4 4 4 4 4 3 3 4 4 5 6 6 6 7 7 6 6 6 7 7 7 8 8 8 8 7 7 7 7 6 5 4 3 2 2 3 5 7 10 12 15 17 19 22 24
7 7 7 7 6 6 6 6 6 6 6 6 6 6 6 6 6 6 6 6 5 5 5 5 5 4 4 4 4 4 4 5 5 6 6 7 7 7 6 6 7 7 7 8 8 8 8 8 8 7 7 6 5 4 3 2 2 2 4 6 8 11 14 17 19 21 23 25 26
7 7 6 6 6 6 6 6 6 6 6 6 6 6 6 6 6 5 5 5 5 5 5 5 5 5 5 5 5 5 6 6 6 7 7 7 7 7 7 7 7 8 8 8 8 8 8 8 8 7 6 4 3 2 2 2 3 5 7 10 13 16 18 21 23 25 26 28 28
7 6 6 6 6 6 6 6 6 6 6 6 6 5 5 5 5 5 5 5 5 5 5 5 5 5 5 6 6 6 7 7 7 7 7 7 7 7 7 7 8 9 9 9 9 8 8 7 6 5 4 2 2 2 2 4 6 9 12 15 18 20 22 24 26 27 28 29 29
6 6 6 6 6 6 6 6 6 6 5 5 5 5 5 5 5 5 5 5 5 5 5 5 6 6 6 7 7 7 7 7 7 7 7 7 7 7 8 9 9 9 9 9 9 8 7 6 4 3 2 1 2 3 5 7 10 13 16 19 22 24 26 27 28 29 29 29 29
6 6 6 5 5 5 5 5 5 5 5 5 5 5 5 5 5 5 5 5 5 5 5 6 6 7 7 7 7 7 7 7 7 7 7 7 8 9 9 10 10 10 9 9 8 7 5 3 2 1 1 2 4 6 9 12 14 17 20 22 24 26 28 29 30 30 29 28 27
5 5 5 5 5 5 5 5 5 5 5 5 5 4 4 4 4 4 5 5 5 6 6 7 7 8 8 8 7 7 7 7 7 7 8 8 9 10 10 10 10 9 9 8 6 4 2 1 1 1 3 5 7 10 12 15 18 20 23 24 26 27 28 29 30 29 28 26 24
5 5 5 5 5 5 5 5 5 5 4 4 4 4 4 4 4 4 5 5 6 7 7 8 8 8 8 7 7 7 7 7 7 8 9 9 10 10 10 10 9 8 7 5 3 2 1 1 2 3 5 8 10 13 16 19 22 24 25 27 28 28 28 29 28 27 25 22 20
4 4 4 5 5 5 5 5 5 5 4 4 4 4 4 4 4 5 5 6 7 7 8 8 8 8 7 7 7 7 7 8 8 9 10 10 10 10 9 9 8 6 4 2 1 0 1 2 5 7 9 11 13 16 19 22 25 27 28 29 30 30 29 27 26 24 22 19 18
4 4 5 5 5 5 5 5 5 5 4 4 4 4 4 4 5 6 6 7 8 8 8 8 7 7 7 6 7 7 8 9 10 10 10 10 10 9 8 7 5 4 2 0 0 1 3 5 8 10 13 15 17 19 22 24 27 29 30 30 31 30 28 26 23 21 19 18 19
4 5 5 5 6 6 5 5 5 5 4 4 4 4 4 5 5 6 7 8 8 8 8 7 7 6 6 7 7 8 9 10 10 10 10 10 9 8 7 5 3 1 0 0 2 4 6 9 12 14 16 18 20 22 24 27 28 30 31 31 30 28 26 23 21 19 19 20 21
5 5 6 6 6 6 6 5 5 4 4 4 4 4 5 5 6 7 8 8 8 7 7 7 7 7 7 8 9 10 10 10 10 10 10 9 8 6 4 2 1 0 1 2 5 7 10 13 15 17 19 21 23 25 27 29 30 31 31 30 28 25 22 20 20 20 22 23 24
6 6 6 6 6 6 5 5 5 4 4 4 4 5 5 6 7 7 8 8 7 7 6 6 7 7 8 10 10 10 11 11 10 10 8 7 6 4 2 1 1 1 3 6 8 11 14 16 18 20 22 24 26 27 29 31 31 30 29 27 24 22 21 20 22 23 24 25 25
6 7 7 7 6 6 5 5 4 4 4 4 5 5 6 7 7 8 7 7 7 6 6 7 7 9 10 10 11 11 11 10 9 8 7 5 4 2 1 0 2 4 7 10 12 14 17 19 21 23 25 26 28 29 30 30 30 28 26 23 22 21 22 22 24 25 25 24 22
7 7 7 7 6 6 5 4 4 4 4 5 5 6 7 8 7 7 7 6 6 7 7 8 9 10 11 11 11 11 10 9 8 7 5 3 2 1 1 2 5 8 10 13 15 17 20 22 24 26 27 28 29 30 30 29 27 25 23 22 22 22 24 25 25 25 23 20 17
7 7 7 6 6 5 5 4 4 4 5 6 6 7 7 8 7 7 7 6 7 7 8 9 10 11 11 11 11 10 9 8 6 4 3 1 1 1 3 6 9 12 14 16 18 20 22 24 26 27 28 29 29 29 28 26 24 22 22 22 23 24 25 26 24 22 18 15 12
7 7 6 6 5 5 4 4 4 5 6 7 7 7 8 7 7 7 7 7 7 8 9 10 11 11 11 10 10 8 7 6 4 2 1 0 1 3 6 10 13 15 17 19 21 23 25 27 28 28 29 28 28 27 25 23 22 21 22 23 25 26 25 23 20 17 13 10 9
7 6 6 5 5 4 4 5 5 6 7 7 8 7 7 6 6 6 7 8 8 10 10 11 11 11 10 10 8 7 5 4 2 1 1 2 4 7 10 13 16 18 20 21 23 25 27 28 28 29 28 27 26 24 22 21 21 22 23 25 25 24 22 19 15 12 10 8 9
7 6 5 5 5 5 5 5 6 7 7 7 7 7 6 6 6 7 8 9 10 10 11 11 11 10 10 8 7 5 4 2 1 1 2 4 7 10 13 16 18 21 23 24 26 27 28 29 29 28 26 24 23 21 21 21 22 23 25 25 24 21 18 14 11 9 8 9 10
6 6 5 5 5 5 6 6 7 7 7 7 7 6 6 6 7 8 9 10 11 11 11 11 10 9 8 6 5 3 2 1 1 2 5 7 11 13 16 18 21 23 25 26 27 28 29 29 28 26 24 22 20 20 20 21 23 24 25 24 21 17 14 11 9 8 9 10 12
6 5 5 5 5 6 6 7 7 7 7 6 6 6 6 7 8 9 10 11 11 11 11 10 9 8 6 4 3 1 1 1 3 5 8 11 14 17 18 19 22 25 27 27 28 28 29 28 26 24 22 20 19 20 20 22 23 24 23 20 17 13 11 9 9 9 11 13 14
5 5 5 6 6 7 7 7 7 7 6 6 6 6 7 8 9 10 11 12 11 11 10 9 8 6 4 2 1 1 1 3 6 9 11 14 17 19 21 21 23 25 28 29 29 28 28 27 24 22 20 19 19 20 21 22 23 22 20 17 13 11 9 9 10 11 13 14 15
5 5 6 6 7 7 7 7 6 6 6 6 6 7 8 10 10 11 11 11 11 10 9 7 6 4 2 1 1 1 3 5 9 12 15 16 18 21 23 24 24 26 28 30 29 28 26 24 22 20 19 19 19 20 21 22 21 19 17 13 11 10 9 10 11 13 14 15 16
5 6 6 7 7 7 7 6 6 6 6 6 7 9 10 10 11 11 11 10 10 9 7 6 4 2 1 1 2 3 5 8 11 14 17 19 21 23 25 25 25 26 28 30 28 26 24 22 20 19 18 19 19 20 20 20 19 16 13 11 10 10 10 11 13 14 15 16 16
Height
5758 5757 5756 5755 5754 5753 5752 5751 5750 5750 5749 5748 5747 5745 5744 5743 5742 5741 5740 5738 5737 5735 5734 5733 5731 5730 5728 5727 5725 5723 5722 5720 5719 5717 5715 5713 5711 5710 5707 5705 5704 5702 5700 5698 5696 5694 5692 5690 5689 5687 5685 5684 5682 5680 5678 5676 5674 5671 5669 5667 5665 5663 5660 5658 5656 5653 5651 5648 5645
5755 5754 5753 5752 5751 5750 5750 5749 5748 5747 5746 5745 5744 5742 5741 5740 5739 5738 5736 5735 5734 5732 5730 5729 5728 5726 5725 5723 5721 5720 5718 5716 5715 5713 5711 5710 5707 5705 5703 5701 5699 5697 5695 5693 5691 5689 5687 5685 5684 5682 5680 5679 5677 5675 5673 5671 5669 5666 5664 5662 5660 5658 5655 5653 5650 5648 5645 5643 5640
5752 5751 5750 5749 5749 5748 5747 5746 5745 5744 5743 5742 5740 5739 5738 5737 5735 5734 5733 5731 5730 5729 5727 5725 5724 5723 5721 5720 5718 5716 5715 5713 5711 5709 5707 5705 5703 5701 5699 5697 5695 5693 5691 5689 5686 5685 5683 5681 5679 5677 5675 5674 5672 5670 5668 5665 5663 5661 5659 5657 5655 5652 5650 5647 5645 5642 5640 5637 5635
5749 5748 5747 5746 5745 5745 5744 5743 5742 5741 5740 5738 5737 5736 5735 5733 5732 5730 5729 5728 5726 5725 5723 5722 5720 5719 5717 5716 5714 5713 5711 5709 5707 5705 5703 5701 5699 5697 5695 5693 5690 5688 5686 5684 5682 5680 5678 5676 5674 5672 5670 5668 5666 5664 5662 5660 5657 5655 5653 5651 5649 5646 5644 5641 5639 5636 5634 5631 5628
5745 5745 5744 5743 5742 5741 5740 5739 5738 5737 5736 5735 5734 5732 5731 5730 5728 5726 5725 5724 5722 5720 5719 5718 5716 5715 5713 5712 5710 5709 5707 5705 5703 5701 5699 5697 5695 5693 5690 5688 5686 5684 5681 5679 5677 5675 5673 5670 5669 5667 5665 5662 5660 5658 5656 5653 5651 5649 5646 5645 5642 5640 5637 5634 5632 5630 5627 5624 5622
5742 5741 5740 5740 5739 5738 5737 5736 5735 5734 5733 5731 5730 5729 5727 5725 5724 5722 5721 5720 5718 5716 5715 5713 5712 5710 5709 5707 5706 5704 5702 5700 5698 5696 5694 5692 5690 5688 5685 5683 5681 5679 5677 5674 5672 5670 5668 5665 5663 5661 5659 5657 5654 5652 5649 5647 5644 5642 5640 5638 5635 5633 5630 5627 5624 5622 5619 5616 5614
5739 5738 5737 5736 5735 5735 5734 5733 5731 5730 5729 5728 5726 5725 5723 5722 5720 5719 5717 5715 5714 5712 5711 5709 5708 5706 5705 5703 5701 5699 5697 5695 5693 5691 5689 5687 5685 5683 5681 5678 5676 5674 5672 5669 5667 5665 5662 5660 5658 5655 5653 5651 5648 5646 5643 5640 5638 5635 5633 5631 5628 5625 5623 5620 5616 5614 5611 5608 5606
5736 5735 5734 5733 5732 5731 5730 5729 5728 5726 5725 5724 5722 5721 5719 5718 5716 5714 5713 5711 5710 5708 5706 5705 5703 5702 5700 5698 5696 5694 5692 5690 5688 5686 5684 5682 5680 5678 5676 5674 5671 5669 5667 5664 5662 5659 5657 5655 5653 5650 5648 5645 5643 5640 5638 5635 5632 5629 5626 5624 5621 5619 5615 5613 5610 5606 5603 5600 5598
5732 5732 5731 5730 5729 5728 5726 5725 5724 5723 5721 5720 5718 5717 5715 5713 5712 5710 5709 5707 5705 5704 5702 5701 5699 5697 5695 5694 5691 5690 5687 5685 5684 5681 5679 5677 5675 5673 5670 5669 5666 5664 5661 5659 5657 5654 5652 5650 5647 5645 5642 5640 5637 5634 5632 5629 5626 5623 5620 5618 5615 5612 5609 5605 5602 5599 5595 5592 5590
5730 5728 5727 5726 5725 5724 5723 5722 5720 5719 5718 5716 5715 5713 5711 5709 5708 5706 5705 5703 5701 5700 5698 5696 5695 5693 5691 5689 5687 5685 5683 5681 5679 5677 5675 5672 5670 5668 5665 5663 5661 5659 5656 5654 5651 5649 5646 5644 5642 5640 5637 5634 5631 5629 5626 5623 5620 5617 5615 5611 5609 5606 5602 5599 5595 5592 5588 5585 5582
5726 5725 5724 5723 5722 5721 5720 5718 5717 5715 5714 5712 5710 5709 5707 5705 5704 5702 5700 5699 5697 5696 5694 5692 5690 5688 5686 5685 5682 5680 5678 5676 5674 5672 5670 5668 5665 5663 5661 5658 5656 5654 5651 5649 5646 5644 5641 5639 5636 5634 5631 5629 5626 5623 5620 5617 5614 5611 5609 5605 5602 5599 5596 5593 5589 5585 5581 5578 5575
5723 5722 5721 5720 5718 5717 5716 5714 5713 5711 5710 5708 5706 5705 5703 5701 5700 5698 5696 5695 5694 5692 5690 5688 5686 5684 5682 5680 5678 5675 5674 5671 5669 5667 5665 5663 5660 5658 5656 5653 5651 5648 5646 5643 5641 5638 5635 5633 5630 5628 5625 5623 5620 5617 5614 5611 5608 5605 5602 5599 5596 5593 5590 5586 5582 5578 5574 5571 5567
5720 5718 5717 5716 5715 5713 5712 5710 5709 5707 5706 5704 5702 5700 5699 5697 5696 5694 5693 5691 5690 5688 5686 5684 5681 5679 5677 5675 5673 5671 5669 5667 5665 5662 5660 5658 5655 5653 5650 5648 5645 5643 5640 5638 5635 5632 5630 5627 5624 5622 5619 5617 5614 5611 5608 5605 5601 5598 5595 5592 5589 5586 5582 5579 5575 5571 5567 5563 5560
5716 5715 5714 5712 5711 5710 5708 5706 5705 5703 5701 5700 5698 5696 5695 5693 5692 5690 5689 5687 5685 5683 5681 5679 5677 5675 5673 5670 5668 5666 5664 5662 5660 5658 5655 5653 5650 5648 5645 5643 5640 5637 5635 5632 5629 5626 5624 5620 5618 5615 5613 5610 5607 5605 5601 5598 5595 5591 5588 5585 5582 5579 5575 5571 5567 5563 5559 5555 5551
5713 5711 5710 5709 5707 5706 5704 5702 5701 5699 5697 5695 5694 5692 5691 5689 5688 5686 5684 5682 5681 5679 5677 5675 5673 5670 5668 5666 5664 5661 5660 5657 5655 5653 5650 5648 5645 5643 5640 5637 5635 5632 5629 5626 5623 5620 5618 5615 5611 5609 5606 5603 5601 5598 5595 5591 5588 5584 5581 5577 5574 5570 5567 5563 5559 5555 5550 5547 5543
5709 5708 5706 5705 5704 5702 5700 5698 5697 5695 5693 5691 5690 5688 5687 5685 5684 5682 5680 5678 5676 5674 5672 5670 5668 5666 5664 5661 5659 5657 5655 5652 5650 5648 5645 5642 5640 5637 5635 5632 5629 5626 5623 5620 5618 5615 5611 5608 5605 5602 5599 5596 5594 5591 5588 5585 5581 5577 5574 5570 5566 5562 5559 5555 5550 5546 5542 5538 5534
5706 5704 5703 5701 5700 5698 5696 5694 5693 5691 5689 5687 5686 5684 5683 5681 5679 5677 5675 5674 5671 5669 5667 5665 5663 5661 5659 5657 5655 5652 5650 5647 5645 5642 5640 5637 5634 5631 5629 5626 5623 5620 5617 5614 5611 5609 5605 5602 5599 5596 5593 5590 5587 5584 5581 5578 5574 5570 5566 5562 5558 5554 5550 5546 5541 5537 5533 5529 5525
5702 5701 5699 5697 5696 5694 5692 5690 5688 5687 5685 5684 5682 5680 5679 5677 5675 5673 5671 5669 5667 5665 5663 5660 5659 5656 5654 5652 5649 5647 5645 5642 5639 5637 5634 5631 5629 5626 5623 5620 5617 5614 5611 5608 5605 5602 5599 5596 5593 5590 5586 5583 5580 5577 5574 5570 5567 5563 5559 5555 5550 5546 5541 5537 5533 5529 5525 5521 5517
5699 5697 5695 5694 5692 5690 5688 5686 5685 5683 5681 5680 5678 5676 5675 5673 5670 5669 5666 5664 5662 5660 5658 5655 5654 5651 5649 5647 5644 5642 5639 5637 5634 5631 5628 5626 5623 5620 5617 5614 5611 5608 5605 5602 5599 5595 5592 5589 5586 5583 5580 5576 5573 5570 5566 5563 5559 5555 5551 5547 5542 5538 5533 5529 5524 5520 5516 5512 5509
5695 5693 5691 5690 5688 5686 5684 5682 5680 5679 5677 5675 5674 5672 5670 5668 5666 5664 5662 5660 5657 5655 5653 5651 5649 5646 5644 5642 5639 5637 5634 5631 5628 5625 5623 5620 5617 5614 5611 5608 5605 5602 5599 5596 5592 5589 5586 5583 5580 5576 5573 5570 5566 5563 5559 5555 5551 5547 5543 5538 5534 5529 5525 5520 5516 5512 5508 5505 5501
5691 5689 5687 5685 5683 5681 5680 5678 5676 5675 5673 5671 5670 5668 5666 5664 5662 5660 5657 5655 5653 5650 5648 5646 5644 5642 5639 5637 5634 5632 5629 5626 5623 5620 5617 5614 5611 5608 5605 5602 5599 5595 5592 5589 5586 5582 5579 5576 5573 5570 5566 5563 5559 5555 5552 5548 5544 5539 5535 5530 5525 5521 5517 5513 5509 5505 5501 5497 5494
5687 5685 5683 5681 5679 5677 5675 5674 5672 5670 5669 5667 5665 5664 5661 5660 5657 5655 5653 5650 5648 5646 5644 5641 5639 5637 5634 5632 5629 5626 5624 5621 5618 5615 5612 5609 5605 5602 5599 5596 5593 5589 5586 5583 5579 5576 5572 5569 5566 5563 5559 5556 5552 5548 5544 5540 5536 5531 5527 5522 5518 5513 5509 5505 5501 5497 5494 5490 5487
5682 5680 5679 5676 5675 5673 5671 5670 5668 5666 5665 5663 5661 5659 5657 5655 5653 5651 5648 5646 5644 5641 5639 5636 5634 5632 5629 5626 5624 5621 5618 5615 5612 5610 5606 5603 5600 5596 5593 5590 5586 5583 5580 5576 5573 5569 5565 5562 5559 5555 5552 5548 5545 5541 5537 5532 5528 5523 5519 5515 5510 5506 5502 5498 5494 5491 5487 5484 5481
5678 5676 5674 5672 5670 5669 5667 5665 5664 5662 5660 5659 5657 5655 5653 5650 5648 5646 5644 5641 5639 5637 5634 5632 5629 5627 5624 5621 5618 5615 5613 5610 5607 5604 5601 5598 5594 5591 5587 5584 5580 5577 5574 5570 5566 5562 5558 5555 5551 5548 5545 5540 5537 5533 5529 5525 5520 5516 5511 5507 5504 5500 5495 5492 5488 5485 5481 5479 5476
5674 5672 5670 5668 5666 5665 5663 5662 5660 5658 5656 5655 5653 5650 5648 5646 5644 5641 5639 5637 5634 5632 5629 5627 5624 5621 5619 5616 5613 5610 5607 5604 5601 5598 5595 5592 5589 5585 5582 5578 5575 5571 5567 5564 5560 5556 5552 5548 5544 5540 5536 5533 5529 5525 5521 5517 5513 5509 5504 5500 5496 5493 5489 5486 5482 5479 5476 5473 5470
5670 5668 5666 5664 5663 5661 5659 5658 5656 5654 5652 5650 5648 5646 5644 5641 5639 5637 5634 5632 5630 5627 5624 5621 5619 5616 5613 5610 5608 5605 5601 5598 5595 5592 5589 5586 5583 5580 5576 5573 5569 5565 5561 5557 5553 5549 5545 5541 5536 5532 5528 5524 5521 5517 5514 5510 5505 5501 5497 5493 5490 5486 5483 5480 5477 5474 5471 5468 5465
5665 5664 5662 5660 5659 5657 5655 5653 5652 5650 5648 5646 5644 5641 5639 5637 5634 5632 5629 5627 5624 5622 5619 5616 5614 5611 5608 5605 5602 5599 5596 5593 5590 5586 5583 5580 5577 5574 5570 5566 5563 5559 5555 5551 5547 5542 5538 5534 5529 5525 5520 5515 5512 5509 5505 5502 5498 5494 5490 5486 5483 5480 5477 5474 5471 5469 5466 5463 5460
5661 5660 5658 5656 5655 5653 5651 5649 5647 5645 5643 5641 5639 5637 5634 5632 5629 5627 5624 5622 5619 5617 5614 5611 5609 5605 5603 5600 5597 5594 5590 5587 5584 5580 5577 5574 5571 5568 5564 5560 5556 5552 5548 5544 5540 5535 5531 5526 5522 5517 5512 5508 5504 5500 5497 5494 5491 5487 5484 5480 5477 5474 5471 5468 5465 5463 5461 5458 5455
5657 5655 5654 5652 5651 5649 5647 5645 5643 5641 5639 5637 5634 5632 5629 5627 5624 5622 5619 5617 5614 5612 5609 5606 5603 5600 5597 5594 5591 5588 5585 5581 5578 5575 5571 5568 5565 5561 5558 5554 5550 5546 5541 5537 5532 5528 5524 5519 5514 5510 5505 5500 5496 5493 5490 5486 5483 5480 5477 5474 5471 5468 5465 5462 5460 5457 5455 5453 5451
5653 5651 5650 5648 5646 5645 5643 5641 5639 5636 5634 5632 5630 5627 5625 5622 5620 5617 5615 5612 5609 5607 5604 5601 5598 5595 5592 5589 5585 5582 5579 5575 5572 5569 5565 5562 5559 5555 5552 5548 5543 5539 5534 5530 5525 5520 5516 5511 5507 5502 5498 5493 5489 5485 5482 5479 5476 5474 5471 5468 5465 5462 5460 5457 5455 5452 5450 5448 5446
5649 5647 5646 5644 5642 5640 5638 5636 5634 5632 5630 5627 5625 5622 5620 5617 5615 5612 5610 5607 5604 5601 5599 5596 5593 5590 5586 5583 5580 5577 5573 5570 5566 5563 5560 5556 5553 5549 5545 5541 5537 5532 5527 5522 5518 5513 5509 5504 5500 5495 5491 5486 5482 5479 5476 5473 5470 5468 5465 5463 5460 5457 5454 5452 5450 5447 5445 5443 5441
5645 5643 5641 5640 5638 5636 5634 5632 5629 5627 5625 5622 5620 5617 5615 5613 5610 5607 5605 5602 5599 5596 5593 5590 5587 5584 5581 5578 5575 5571 5568 5564 5561 5557 5553 5550 5546 5543 5539 5535 5530 5525 5520 5515 5510 5505 5501 5497 5492 5488 5484 5480 5476 5473 5470 5467 5465 5462 5460 5457 5455 5452 5450 5447 5445 5443 5441 5439 5437
5641 5639 5637 5635 5633 5631 5629 5627 5625 5622 5620 5618 5615 5613 5610 5608 5605 5602 5600 5597 5594 5591 5588 5585 5581 5578 5575 5572 5569 5565 5562 5558 5555 5551 5548 5544 5540 5536 5532 5528 5523 5517 5512 5508 5503 5498 5494 5489 5485 5481 5477 5474 5470 5467 5465 5462 5459 5457 5455 5452 5450 5447 5445 5443 5441 5439 5437 5435 5433
5637 5635 5633 5631 5629 5627 5625 5623 5620 5618 5615 5613 5610 5608 5605 5603 5600 5597 5594 5591 5589 5585 5582 5579 5576 5572 5569 5566 5563 5560 5556 5552 5549 5545 5542 5538 5534 5530 5525 5521 5516 5510 5505 5500 5495 5491 5487 5482 5478 5475 5471 5468 5465 5462 5460 5457 5455 5452 5450 5448 5445 5443 5441 5439 5437 5435 5433 5431 5430
5633 5630 5629 5627 5625 5623 5620 5618 5616 5613 5611 5608 5606 5603 5600 5598 5595 5592 5589 5586 5583 5580 5577 5573 5570 5567 5563 5560 5557 5553 5550 5546 5543 5539 5535 5531 5527 5523 5519 5514 5509 5504 5498 5493 5489 5484 5480 5476 5472 5468 5465 5462 5460 5457 5455 5453 5450 5448 5446 5444 5441 5439 5437 5435 5433 5431 5430 5428 5426
5628 5626 5625 5622 5620 5618 5616 5613 5611 5609 5606 5604 5601 5598 5595 5592 5589 5586 5583 5580 5577 5574 5571 5568 5565 5561 5558 5554 5551 5547 5544 5540 5537 5533 5529 5525 5521 5517 5512 5507 5502 5497 5492 5487 5482 5478 5474 5470 5466 5463 5460 5457 5455 5452 5450 5448 5446 5444 5442 5440 5438 5435 5434 5432 5430 5428 5426 5424 5422
5624 5622 5620 5618 5615 5613 5611 5608 5606 5603 5601 5598 5596 5593 5590 5587 5584 5580 5577 5575 5571 5568 5565 5562 5559 5555 5552 5549 5545 5542 5538 5534 5530 5526 5522 5518 5514 5510 5506 5501 5496 5490 5486 5481 5476 5472 5468 5464 5460 5457 5455 5452 5450 5448 5446 5444 5442 5440 5438 5436 5434 5432 5430 5428 5427 5425 5423 5421 5419
5619 5617 5615 5613 5610 5608 5606 5603 5601 5598 5595 5593 5590 5587 5585 5581 5578 5575 5572 5569 5565 5562 5559 5556 5553 5550 5546 5543 5540 5536 5532 5528 5524 5520 5515 5511 5506 5502 5498 5495 5490 5485 5480 5475 5471 5466 5462 5459 5455 5452 5450 5447 5445 5444 5442 5440 5438 5436 5435 5433 5431 5429 5427 5425 5423 5421 5420 5418 5415
5614 5612 5610 5608 5605 5603 5600 5598 5595 5593 5590 5588 5585 5582 5579 5576 5573 5569 5566 5563 5559 5556 5553 5550 5547 5544 5540 5537 5534 5530 5527 5522 5518 5513 5509 5504 5500 5495 5491 5487 5483 5478 5474 5470 5465 5461 5457 5454 5451 5448 5445 5443 5441 5439 5438 5436 5435 5433 5431 5430 5428 5426 5424 5422 5420 5418 5416 5415 5412
5609 5607 5605 5602 5600 5598 5595 5593 5590 5588 5585 5582 5579 5576 5573 5570 5567 5563 5560 5557 5553 5550 5547 5544 5541 5538 5534 5531 5528 5525 5521 5517 5512 5507 5502 5498 5493 5488 5484 5480 5476 5472 5468 5464 5460 5457 5453 5450 5446 5444 5441 5438 5436 5435 5434 5432 5431 5429 5427 5426 5424 5423 5421 5419 5417 5415 5413 5411 5409
5605 5602 5600 5597 5595 5593 5590 5587 5585 5582 5580 5577 5574 5570 5567 5564 5561 5558 5554 5551 5547 5544 5541 5538 5535 5532 5528 5525 5521 5518 5515 5511 5506 5501 5496 5491 5486 5482 5477 5473 5470 5466 5462 5459 5455 5452 5449 5445 5442 5439 5437 5434 5432 5431 5430 5428 5427 5425 5424 5422 5421 5419 5417 5415 5414 5412 5410 5408 5406